SHT4A EGLL-EGAC

Flight info

Callsign SHT4A
Flight time 0h 55m
Altitude 34000
Route ULTIB1J ULTIB T420 TNT UL28 RODOL UM65 TENSO L603 BELOX DCT REMSI DCT NINEB M148 MAGEE DCT
Aircraft A320/M-SDE3FGIJ1KRWXY/SB1

Departure

Time 2026-04-21 22:05
Airport London Heathrow Airport (EGLL)

Arrival

Time 2026-04-21 23:00
Airport George Best Belfast City Airport (EGAC)
Time Latitude Longitude Altitude Speed Heading
2026-04-21 21:16 51.47361 -0.48587 86 ft 0 kts 270°
2026-04-21 21:52 51.47361 -0.48563 86 ft 3 kts 270°
2026-04-21 21:52 51.47361 -0.48530 86 ft 1 kts 269°
2026-04-21 21:53 51.47363 -0.48498 86 ft 3 kts 244°
2026-04-21 21:53 51.47375 -0.48476 87 ft 3 kts 190°
2026-04-21 21:53 51.47396 -0.48474 88 ft 3 kts 179°
2026-04-21 21:53 51.47400 -0.48474 86 ft 0 kts 179°
2026-04-21 21:59 51.47394 -0.48474 86 ft 3 kts 179°
2026-04-21 22:00 51.47369 -0.48474 86 ft 5 kts 179°
2026-04-21 22:00 51.47317 -0.48473 86 ft 9 kts 179°
2026-04-21 22:00 51.47239 -0.48473 86 ft 13 kts 180°
2026-04-21 22:00 51.47136 -0.48471 86 ft 17 kts 179°
2026-04-21 22:01 51.47009 -0.48470 88 ft 20 kts 179°
2026-04-21 22:01 51.46859 -0.48469 89 ft 23 kts 179°
2026-04-21 22:01 51.46724 -0.48468 88 ft 15 kts 180°
2026-04-21 22:01 51.46643 -0.48468 86 ft 10 kts 180°
2026-04-21 22:02 51.46599 -0.48467 86 ft 3 kts 179°
2026-04-21 22:02 51.46579 -0.48467 86 ft 5 kts 179°
2026-04-21 22:02 51.46533 -0.48466 86 ft 9 kts 179°
2026-04-21 22:02 51.46480 -0.48415 90 ft 8 kts 107°
2026-04-21 22:03 51.46479 -0.48375 87 ft 0 kts 89°
2026-04-21 22:04 51.46480 -0.48147 88 ft 55 kts 89°
2026-04-21 22:04 51.46484 -0.47172 88 ft 117 kts 89°
2026-04-21 22:04 51.46486 -0.45622 225 ft 150 kts 89°
2026-04-21 22:05 51.46467 -0.44530 658 ft 148 kts 89°
2026-04-21 22:05 51.46460 -0.42839 1262 ft 152 kts 87°
2026-04-21 22:05 51.46755 -0.41175 1632 ft 168 kts 52°
2026-04-21 22:05 51.47578 -0.39679 1891 ft 190 kts 50°
2026-04-21 22:06 51.48498 -0.37981 2212 ft 213 kts 51°
2026-04-21 22:06 51.49514 -0.36078 2727 ft 233 kts 52°
2026-04-21 22:06 51.50566 -0.34092 3682 ft 234 kts 52°
2026-04-21 22:06 51.51858 -0.32466 4649 ft 245 kts 30°
2026-04-21 22:07 51.53557 -0.31741 5491 ft 258 kts 17°
2026-04-21 22:07 51.55339 -0.31207 6318 ft 264 kts 17°
2026-04-21 22:07 51.57163 -0.30648 7150 ft 269 kts 17°
2026-04-21 22:07 51.59018 -0.30076 8002 ft 273 kts 17°
2026-04-21 22:08 51.60894 -0.29485 8824 ft 277 kts 17°
2026-04-21 22:08 51.62801 -0.28884 9618 ft 281 kts 16°
2026-04-21 22:08 51.64753 -0.28439 10416 ft 289 kts
2026-04-21 22:08 51.66821 -0.28872 10765 ft 316 kts 345°
2026-04-21 22:09 51.68866 -0.30512 10988 ft 340 kts 330°
2026-04-21 22:09 51.70910 -0.32551 11586 ft 348 kts 330°
2026-04-21 22:09 51.72986 -0.34592 12333 ft 350 kts 330°
2026-04-21 22:09 51.75073 -0.36626 13096 ft 351 kts 330°
2026-04-21 22:10 51.77174 -0.38659 13839 ft 353 kts 330°
2026-04-21 22:10 51.79281 -0.40703 14578 ft 354 kts 330°
2026-04-21 22:10 51.81404 -0.42752 15282 ft 357 kts 329°
2026-04-21 22:10 51.83539 -0.44830 15965 ft 359 kts 329°
2026-04-21 22:11 51.85680 -0.46919 16629 ft 360 kts 329°
2026-04-21 22:11 51.87835 -0.49004 17282 ft 362 kts 329°
2026-04-21 22:11 51.90001 -0.51112 17909 ft 364 kts 329°
2026-04-21 22:11 51.92175 -0.53232 18536 ft 366 kts 328°
2026-04-21 22:12 51.94360 -0.55362 19208 ft 367 kts 328°
2026-04-21 22:12 51.96555 -0.57501 19888 ft 369 kts 328°
2026-04-21 22:12 51.98762 -0.59658 20590 ft 370 kts 328°
2026-04-21 22:12 52.00970 -0.61818 21299 ft 371 kts 328°
2026-04-21 22:13 52.03192 -0.63994 21891 ft 375 kts 328°
2026-04-21 22:13 52.05437 -0.66194 22420 ft 378 kts 328°
2026-04-21 22:13 52.07695 -0.68409 22996 ft 380 kts 328°
2026-04-21 22:13 52.09962 -0.70635 23580 ft 382 kts 327°
2026-04-21 22:14 52.12238 -0.72883 24160 ft 383 kts 327°
2026-04-21 22:14 52.14517 -0.75133 24718 ft 384 kts 327°
2026-04-21 22:14 52.16808 -0.77391 25246 ft 386 kts 327°
2026-04-21 22:14 52.19110 -0.79653 25758 ft 387 kts 327°
2026-04-21 22:15 52.21419 -0.81941 26241 ft 390 kts 327°
2026-04-21 22:15 52.23742 -0.84253 26727 ft 391 kts 327°
2026-04-21 22:15 52.26074 -0.86563 27192 ft 393 kts 327°
2026-04-21 22:15 52.28422 -0.88889 27653 ft 395 kts 327°
2026-04-21 22:16 52.30771 -0.91222 28092 ft 397 kts 327°
2026-04-21 22:16 52.33106 -0.93550 28510 ft 399 kts 326°
2026-04-21 22:16 52.35478 -0.95910 28933 ft 401 kts 326°
2026-04-21 22:16 52.37866 -0.98293 29331 ft 402 kts 326°
2026-04-21 22:17 52.40259 -1.00686 29700 ft 404 kts 326°
2026-04-21 22:17 52.42653 -1.03088 30166 ft 403 kts 326°
2026-04-21 22:17 52.45033 -1.05479 30685 ft 400 kts 326°
2026-04-21 22:17 52.47409 -1.07868 31139 ft 400 kts 326°
2026-04-21 22:18 52.49779 -1.10258 31593 ft 399 kts 326°
2026-04-21 22:18 52.52149 -1.12628 32024 ft 399 kts 326°
2026-04-21 22:18 52.54516 -1.15009 32452 ft 399 kts 326°
2026-04-21 22:18 52.56876 -1.17397 32886 ft 398 kts 326°
2026-04-21 22:19 52.59237 -1.19779 33304 ft 398 kts 326°
2026-04-21 22:19 52.61603 -1.22158 33716 ft 398 kts 326°
2026-04-21 22:19 52.63965 -1.24541 34102 ft 399 kts 326°
2026-04-21 22:19 52.66328 -1.26941 34496 ft 399 kts 326°
2026-04-21 22:20 52.68694 -1.29332 34855 ft 400 kts 326°
2026-04-21 22:20 52.71067 -1.31737 35189 ft 401 kts 326°
2026-04-21 22:20 52.73457 -1.34176 35384 ft 407 kts 326°
2026-04-21 22:21 52.78336 -1.39148 35404 ft 415 kts 326°
2026-04-21 22:21 52.83250 -1.44167 35413 ft 416 kts 326°
2026-04-21 22:22 52.88176 -1.49212 35403 ft 416 kts 326°
2026-04-21 22:22 52.93105 -1.54283 35399 ft 417 kts 326°
2026-04-21 22:23 52.98034 -1.59370 35392 ft 417 kts 326°
2026-04-21 22:23 53.02966 -1.64468 35384 ft 418 kts 326°
2026-04-21 22:24 53.07900 -1.69574 35375 ft 418 kts 326°
2026-04-21 22:24 53.12832 -1.74728 35364 ft 419 kts 326°
2026-04-21 22:25 53.17777 -1.79888 35347 ft 419 kts 326°
2026-04-21 22:25 53.22727 -1.85059 35339 ft 420 kts 326°
2026-04-21 22:26 53.27781 -1.89981 35346 ft 421 kts 329°
2026-04-21 22:26 53.32894 -1.94790 35345 ft 422 kts 329°
2026-04-21 22:27 53.38002 -1.99650 35362 ft 423 kts 329°
2026-04-21 22:27 53.43122 -2.04523 35364 ft 423 kts 329°
2026-04-21 22:28 53.48244 -2.09415 35370 ft 424 kts 329°
2026-04-21 22:28 53.53365 -2.14327 35370 ft 424 kts 329°
2026-04-21 22:29 53.58217 -2.19926 35376 ft 423 kts 315°
2026-04-21 22:29 53.61651 -2.27832 35374 ft 424 kts 295°
2026-04-21 22:30 53.63820 -2.37088 35385 ft 425 kts 292°
2026-04-21 22:30 53.65938 -2.46386 35398 ft 425 kts 291°
2026-04-21 22:31 53.68065 -2.55680 35405 ft 425 kts 292°
2026-04-21 22:31 53.70173 -2.64985 35415 ft 424 kts 291°
2026-04-21 22:32 53.72276 -2.74278 35420 ft 423 kts 291°
2026-04-21 22:32 53.74364 -2.83569 35425 ft 423 kts 291°
2026-04-21 22:33 53.76434 -2.92854 35425 ft 422 kts 291°
2026-04-21 22:33 53.78500 -3.02146 35427 ft 421 kts 291°
2026-04-21 22:34 53.80552 -3.11413 35428 ft 420 kts 291°
2026-04-21 22:34 53.82605 -3.20677 35427 ft 420 kts 291°
2026-04-21 22:35 53.84645 -3.29920 35426 ft 419 kts 291°
2026-04-21 22:35 53.86657 -3.39170 35425 ft 418 kts 290°
2026-04-21 22:36 53.89660 -3.53009 34908 ft 415 kts 290°
2026-04-21 22:36 53.90658 -3.57596 34658 ft 413 kts 290°
2026-04-21 22:36 53.91645 -3.62166 34409 ft 412 kts 290°
2026-04-21 22:37 53.92631 -3.66725 34158 ft 410 kts 290°
2026-04-21 22:37 53.93606 -3.71256 33909 ft 408 kts 290°
2026-04-21 22:37 53.94572 -3.75769 33658 ft 406 kts 290°
2026-04-21 22:37 53.95535 -3.80262 33292 ft 404 kts 291°
2026-04-21 22:38 53.96705 -3.84612 32437 ft 407 kts 299°
2026-04-21 22:38 53.98122 -3.88765 31883 ft 403 kts 300°
2026-04-21 22:38 53.99511 -3.92853 31383 ft 397 kts 300°
2026-04-21 22:38 54.00879 -3.96895 30862 ft 392 kts 300°
2026-04-21 22:39 54.02225 -4.00890 30358 ft 387 kts 300°
2026-04-21 22:39 54.03546 -4.04841 29862 ft 381 kts 300°
2026-04-21 22:39 54.04851 -4.08722 29374 ft 375 kts 300°
2026-04-21 22:39 54.06140 -4.12549 28898 ft 370 kts 302°
2026-04-21 22:40 54.07590 -4.16141 28417 ft 366 kts 306°
2026-04-21 22:40 54.09063 -4.19654 27951 ft 363 kts 305°
2026-04-21 22:40 54.10517 -4.23155 27484 ft 361 kts 305°
2026-04-21 22:40 54.11964 -4.26652 27022 ft 360 kts 305°
2026-04-21 22:41 54.13407 -4.30137 26558 ft 360 kts 305°
2026-04-21 22:41 54.14845 -4.33622 26097 ft 359 kts 305°
2026-04-21 22:41 54.16280 -4.37115 25636 ft 360 kts 305°
2026-04-21 22:41 54.17726 -4.40601 25188 ft 360 kts 305°
2026-04-21 22:42 54.19164 -4.44091 24736 ft 359 kts 305°
2026-04-21 22:42 54.20592 -4.47591 24289 ft 359 kts 304°
2026-04-21 22:42 54.22020 -4.51088 23847 ft 358 kts 305°
2026-04-21 22:42 54.23448 -4.54563 23414 ft 357 kts 305°
2026-04-21 22:43 54.24869 -4.58028 22987 ft 355 kts 305°
2026-04-21 22:43 54.26281 -4.61490 22562 ft 354 kts 305°
2026-04-21 22:43 54.27688 -4.64930 22140 ft 352 kts 305°
2026-04-21 22:43 54.29083 -4.68360 21717 ft 350 kts 304°
2026-04-21 22:44 54.30472 -4.71785 21291 ft 349 kts 305°
2026-04-21 22:44 54.31856 -4.75187 20874 ft 348 kts 305°
2026-04-21 22:44 54.33217 -4.78531 20460 ft 346 kts 304°
2026-04-21 22:44 54.34309 -4.82207 20159 ft 355 kts 287°
2026-04-21 22:45 54.34817 -4.86429 19913 ft 365 kts 279°
2026-04-21 22:45 54.35224 -4.90741 19656 ft 367 kts 279°
2026-04-21 22:45 54.35635 -4.95042 19233 ft 364 kts 279°
2026-04-21 22:45 54.36054 -4.99303 18374 ft 361 kts 280°
2026-04-21 22:46 54.36472 -5.03532 17461 ft 359 kts 279°
2026-04-21 22:46 54.36884 -5.07737 16536 ft 357 kts 279°
2026-04-21 22:46 54.37290 -5.11922 15744 ft 352 kts 279°
2026-04-21 22:46 54.37678 -5.15932 15551 ft 330 kts 279°
2026-04-21 22:47 54.38052 -5.19751 15075 ft 321 kts 278°
2026-04-21 22:47 54.38126 -5.23527 14499 ft 313 kts 260°
2026-04-21 22:47 54.37903 -5.25967 14379 ft 300 kts 259°
2026-04-21 22:47 54.37580 -5.29401 13968 ft 293 kts 259°
2026-04-21 22:48 54.37257 -5.32838 13448 ft 290 kts 259°
2026-04-21 22:48 54.36941 -5.36251 12907 ft 289 kts 259°
2026-04-21 22:48 54.36630 -5.39645 12416 ft 285 kts 259°
2026-04-21 22:48 54.36332 -5.42954 12029 ft 278 kts 259°
2026-04-21 22:49 54.36043 -5.46215 11558 ft 276 kts 259°
2026-04-21 22:49 54.35758 -5.49465 11049 ft 275 kts 259°
2026-04-21 22:49 54.35479 -5.52700 10544 ft 274 kts 259°
2026-04-21 22:49 54.35200 -5.55927 10047 ft 273 kts 259°
2026-04-21 22:50 54.34924 -5.59133 9545 ft 271 kts 259°
2026-04-21 22:50 54.34650 -5.62326 9049 ft 270 kts 259°
2026-04-21 22:50 54.34377 -5.65506 8545 ft 269 kts 259°
2026-04-21 22:50 54.34105 -5.68669 8042 ft 268 kts 259°
2026-04-21 22:51 54.33834 -5.71811 7552 ft 266 kts 259°
2026-04-21 22:51 54.33564 -5.74930 7108 ft 263 kts 259°
2026-04-21 22:51 54.33296 -5.78033 6614 ft 263 kts 259°
2026-04-21 22:51 54.33027 -5.81122 6158 ft 261 kts 259°
2026-04-21 22:52 54.32760 -5.84184 5714 ft 259 kts 259°
2026-04-21 22:52 54.32492 -5.87242 5250 ft 260 kts 260°
2026-04-21 22:52 54.32576 -5.90311 4778 ft 259 kts 288°
2026-04-21 22:52 54.33430 -5.92967 4296 ft 253 kts 317°
2026-04-21 22:53 54.34768 -5.94718 4114 ft 235 kts 336°
2026-04-21 22:53 54.36158 -5.96087 3970 ft 226 kts 337°
2026-04-21 22:53 54.37491 -5.97384 3804 ft 217 kts 338°
2026-04-21 22:53 54.38789 -5.98651 3604 ft 210 kts 338°
2026-04-21 22:54 54.40026 -5.99870 3466 ft 200 kts 339°
2026-04-21 22:54 54.41210 -6.01016 3333 ft 190 kts 343°
2026-04-21 22:54 54.42393 -6.01858 3204 ft 179 kts 352°
2026-04-21 22:54 54.43557 -6.02402 3051 ft 170 kts
2026-04-21 22:55 54.44707 -6.02700 2853 ft 164 kts
2026-04-21 22:55 54.45835 -6.02771 2628 ft 160 kts 11°
2026-04-21 22:55 54.46937 -6.02632 2382 ft 158 kts 16°
2026-04-21 22:55 54.48011 -6.02290 2150 ft 155 kts 21°
2026-04-21 22:56 54.49036 -6.01771 2035 ft 152 kts 27°
2026-04-21 22:56 54.50007 -6.01061 2010 ft 151 kts 33°
2026-04-21 22:56 54.50910 -6.00158 2004 ft 150 kts 38°
2026-04-21 22:56 54.51776 -5.99185 2006 ft 148 kts 40°
2026-04-21 22:57 54.52627 -5.98191 1968 ft 148 kts 39°
2026-04-21 22:57 54.53475 -5.97190 1833 ft 148 kts 40°
2026-04-21 22:57 54.54311 -5.96200 1649 ft 144 kts 40°
2026-04-21 22:57 54.55121 -5.95242 1474 ft 139 kts 40°
2026-04-21 22:58 54.55914 -5.94299 1288 ft 137 kts 39°
2026-04-21 22:58 54.56696 -5.93364 1108 ft 132 kts 39°
2026-04-21 22:58 54.57452 -5.92462 943 ft 131 kts 39°
2026-04-21 22:58 54.58198 -5.91571 769 ft 130 kts 39°
2026-04-21 22:59 54.58942 -5.90699 597 ft 130 kts 38°
2026-04-21 22:59 54.59676 -5.89802 438 ft 129 kts 39°
2026-04-21 22:59 54.60416 -5.88935 256 ft 128 kts 39°
2026-04-21 22:59 54.61144 -5.88050 69 ft 128 kts 39°
2026-04-21 23:00 54.61849 -5.87207 21 ft 111 kts 37°
2026-04-21 23:00 54.62277 -5.86693 22 ft 33 kts 34°
2026-04-21 23:00 54.62431 -5.86545 21 ft 17 kts
2026-04-21 23:00 54.62468 -5.86472 20 ft 9 kts 144°
2026-04-21 23:01 54.62414 -5.86525 21 ft 10 kts 220°
2026-04-21 23:01 54.62354 -5.86602 21 ft 13 kts 215°
2026-04-21 23:01 54.62265 -5.86707 20 ft 17 kts 214°
2026-04-21 23:01 54.62155 -5.86839 17 ft 22 kts 214°
2026-04-21 23:02 54.62016 -5.87004 16 ft 26 kts 214°
2026-04-21 23:02 54.61892 -5.87152 20 ft 14 kts 214°
2026-04-21 23:02 54.61816 -5.87129 17 ft 15 kts 126°
2026-04-21 23:02 54.61759 -5.86999 21 ft 10 kts 144°
2026-04-21 23:03 54.61692 -5.87031 21 ft 11 kts 217°
2026-04-21 23:03 54.61626 -5.87110 21 ft 10 kts 214°
2026-04-21 23:03 54.61579 -5.87166 23 ft 5 kts 215°
2026-04-21 23:03 54.61559 -5.87181 21 ft 3 kts 188°
2026-04-21 23:04 54.61535 -5.87171 21 ft 4 kts 160°
2026-04-21 23:04 54.61520 -5.87160 21 ft 2 kts 156°
2026-04-21 23:04 54.61509 -5.87152 21 ft 2 kts 156°
2026-04-21 23:04 54.61503 -5.87147 23 ft 1 kts 156°
2026-04-21 23:05 54.61499 -5.87145 23 ft 0 kts 156°